Snoqualmie Pass
Alpental Ski Area
Latest observation 08/31 20:00 PDT
| Time (PDT) | Temp °F 5470' | Temp °F 4350' | Temp °F 3100' | RH % 5470' | RH % 3100' | Spd mph 5470' | Gust mph 5470' | Dir ° 5470' | Pcp1 in 3100' | PcpSum in 3100' | 24Sno in 3100' | SnoHt in 3100' | 24Sno in 4350' | SnoHt in 4350' | I/S_Sno in 5470' |
|---|---|---|---|---|---|---|---|---|---|---|---|---|---|---|---|
| 08/31 20:00 | 58 | 61 | 58 | 44 | 73 | 0 | 0 | 14 | 0.00 | 0.61 | 49.4 | 9.7 | 1.1 | 10.5 | 61.0 |
| 08/31 19:00 | 61 | 63 | 62 | 43 | 65 | 0 | 0 | 14 | 0.00 | 0.61 | 46.4 | 9.0 | 3.3 | 10.0 | 55.2 |
| 08/31 18:00 | 62 | 64 | 65 | 43 | 56 | 0 | 0 | 14 | 0.00 | 0.61 | 48.4 | 8.7 | 2.8 | 10.4 | 49.4 |
| 08/31 17:00 | 63 | 68 | 70 | 41 | 41 | 0 | 0 | 13 | 0.00 | 0.61 | 54.1 | 9.2 | 3.6 | 10.4 | 42.8 |
| 08/31 16:00 | 63 | 69 | 74 | 41 | 34 | 0 | 0 | 13 | 0.00 | 0.61 | 58.5 | 7.9 | 4.2 | 10.3 | 38.7 |
| 08/31 15:00 | 62 | 68 | 74 | 44 | 32 | 0 | 0 | 13 | 0.00 | 0.61 | 58.5 | 7.9 | 6.6 | 10.5 | 37.5 |
| 08/31 14:00 | 61 | 66 | 73 | 47 | 35 | 0 | 0 | 14 | 0.00 | 0.61 | 51.4 | 7.9 | 9.9 | 10.3 | 34.0 |
| 08/31 13:00 | 58 | 64 | 69 | 53 | 40 | 0 | 0 | 15 | 0.00 | 0.61 | 42.6 | 8.9 | 16.6 | 10.5 | 37.2 |
| 08/31 12:00 | 56 | 59 | 63 | 56 | 56 | 0 | 0 | 18 | 0.00 | 0.61 | 43.9 | 9.4 | 18.8 | 10.7 | 41.0 |
| 08/31 11:00 | 54 | 56 | 58 | 56 | 65 | 0 | 0 | 16 | 0.00 | 0.61 | 46.1 | 9.8 | 15.2 | 10.9 | 37.8 |
| 08/31 10:00 | 53 | 52 | 55 | 59 | 75 | 0 | 0 | 16 | 0.00 | 0.61 | 58.3 | 11.2 | 5.1 | 10.9 | 32.5 |
| 08/31 09:00 | 52 | 50 | 47 | 61 | 98 | 0 | 0 | 16 | 0.00 | 0.61 | 67.7 | 11.5 | 0.0 | 10.7 | 37.3 |
| 08/31 08:00 | 51 | 48 | 46 | 63 | 96 | 0 | 0 | 17 | 0.00 | 0.61 | 67.5 | 11.8 | -4.6 | 10.9 | 52.4 |
| 08/31 07:00 | 51 | 48 | 44 | 67 | 97 | 0 | 0 | 18 | 0.00 | 0.61 | 68.1 | 11.7 | -4.4 | 11.0 | 54.7 |
| 08/31 06:00 | 51 | 51 | 44 | 66 | 96 | 0 | 0 | 18 | 0.00 | 0.61 | 68.2 | 11.8 | -3.6 | 10.9 | 57.3 |
| 08/31 05:00 | 52 | 50 | 44 | 66 | 97 | 0 | 0 | 18 | 0.00 | 0.61 | 67.6 | 11.7 | -0.8 | 10.8 | 58.7 |
| 08/31 04:00 | 51 | 52 | 45 | 67 | 96 | 0 | 0 | 18 | 0.00 | 0.61 | 66.0 | 11.8 | -1.0 | 10.9 | 59.1 |
| 08/31 03:00 | 51 | 50 | 45 | 67 | 95 | 0 | 0 | 18 | 0.00 | 0.61 | 69.1 | 11.7 | 0.2 | 10.9 | 57.3 |
| 08/31 02:00 | 50 | 49 | 45 | 68 | 95 | 0 | 0 | 18 | 0.00 | 0.61 | 64.7 | 11.4 | -0.8 | 11.0 | 58.9 |
| 08/31 01:00 | 49 | 47 | 46 | 71 | 94 | 0 | 0 | 18 | 0.00 | 0.61 | 65.4 | 11.4 | -4.8 | 10.9 | 60.9 |
| 08/31 00:00 | 47 | 46 | 46 | 77 | 93 | 0 | 0 | 21 | 0.00 | 0.61 | 63.6 | 11.0 | -8.3 | 11.1 | 58.8 |
| 08/30 23:00 | 46 | 46 | 47 | 84 | 92 | 0 | 0 | 22 | 0.00 | 0.61 | 64.6 | 10.9 | -6.3 | 10.7 | 60.1 |
| 08/30 22:00 | 43 | 48 | 48 | 92 | 90 | 0 | 0 | 24 | 0.00 | 0.61 | 62.0 | 10.9 | -8.1 | 10.7 | 61.6 |
| 08/30 21:00 | 43 | 48 | 51 | 93 | 86 | 0 | 0 | 23 | 0.00 | 0.61 | 58.1 | 10.2 | -8.4 | 10.8 | 60.0 |
| 08/30 20:00 | 44 | 48 | 55 | 91 | 72 | 0 | 0 | 22 | 0.00 | 0.61 | 50.5 | 10.3 | -11.7 | 10.5 | 62.0 |
| 08/30 19:00 | 45 | 48 | 55 | 90 | 72 | 0 | 0 | 21 | 0.00 | 0.61 | 50.7 | 10.2 | -9.7 | 10.8 | 60.2 |
| 08/30 18:00 | 46 | 49 | 56 | 89 | 69 | 0 | 0 | 22 | 0.00 | 0.61 | 49.6 | 9.8 | -6.6 | 10.8 | 57.4 |
| 08/30 17:00 | 46 | 50 | 56 | 89 | 67 | 0 | 0 | 22 | 0.00 | 0.61 | 50.5 | 9.9 | -7.5 | 11.0 | 50.0 |
| 08/30 16:00 | 46 | 50 | 56 | 86 | 65 | 0 | 0 | 22 | 0.00 | 0.61 | 49.5 | 10.4 | -6.3 | 10.8 | 48.6 |
| 08/30 15:00 | 46 | 50 | 56 | 84 | 63 | 0 | 0 | 21 | 0.00 | 0.61 | 48.1 | 9.8 | -7.6 | 11.1 | 42.7 |
| 08/30 14:00 | 46 | 49 | 55 | 86 | 66 | 0 | 0 | 24 | 0.00 | 0.61 | 50.0 | 10.1 | -9.1 | 11.0 | 41.3 |
| 08/30 13:00 | 45 | 48 | 54 | 86 | 69 | 0 | 0 | 23 | 0.00 | 0.61 | 52.8 | 10.5 | -10.5 | 11.1 | 41.0 |
| 08/30 12:00 | 43 | 47 | 52 | 90 | 76 | 0 | 0 | 26 | 0.00 | 0.61 | 57.9 | 10.7 | -12.7 | 11.4 | 42.2 |
| 08/30 11:00 | 42 | 45 | 50 | 91 | 93 | 0 | 0 | 29 | 0.00 | 0.61 | 65.1 | 11.0 | -13.6 | 11.0 | 44.4 |
| 08/30 10:00 | 41 | 44 | 48 | 93 | 98 | 0 | 0 | 27 | 0.00 | 0.61 | 64.7 | 11.1 | -12.8 | 11.2 | 47.9 |
| 08/30 09:00 | 40 | 43 | 47 | 94 | 98 | 0 | 0 | 30 | 0.00 | 0.61 | 65.8 | 11.3 | -13.9 | 11.0 | 47.0 |
| 08/30 08:00 | 39 | 42 | 46 | 96 | 99 | 0 | 0 | 27 | 0.00 | 0.61 | 66.7 | 11.3 | -16.2 | 11.0 | 53.7 |
| 08/30 07:00 | 38 | 42 | 46 | 97 | 99 | 0 | 0 | 32 | 0.01 | 0.61 | 69.2 | 11.3 | -18.1 | 11.1 | 56.3 |
| 08/30 06:00 | 39 | 42 | 46 | 97 | 99 | 0 | 0 | 27 | 0.00 | 0.60 | 66.0 | 11.7 | -17.7 | 11.1 | 56.3 |
| 08/30 05:00 | 39 | 42 | 47 | 96 | 98 | 0 | 0 | 24 | 0.00 | 0.60 | 66.9 | 11.1 | -18.6 | 10.8 | 60.2 |
| 08/30 04:00 | 38 | 42 | 47 | 97 | 98 | 0 | 0 | 27 | 0.00 | 0.60 | 68.0 | 10.9 | -21.2 | 11.3 | 61.0 |
| 08/30 03:00 | 39 | 42 | 47 | 98 | 98 | 0 | 0 | 30 | 0.00 | 0.60 | 67.7 | 10.9 | -19.1 | 11.1 | 60.0 |
| 08/30 02:00 | 39 | 43 | 47 | 97 | 98 | 0 | 0 | 30 | 0.00 | 0.60 | 64.8 | 10.9 | -15.4 | 11.1 | 59.3 |
| 08/30 01:00 | 39 | 43 | 48 | 97 | 98 | 0 | 0 | 25 | 0.00 | 0.60 | 64.4 | 10.7 | -17.4 | 10.9 | 56.8 |
| 08/30 00:00 | 39 | 43 | 48 | 97 | 98 | 0 | 0 | 23 | 0.00 | 0.60 | 64.1 | 10.9 | -18.7 | 10.9 | 57.1 |
| 08/29 23:00 | 40 | 43 | 48 | 97 | 98 | 0 | 0 | 25 | 0.00 | 0.60 | 62.9 | 11.0 | -19.4 | 11.1 | 58.3 |
| 08/29 22:00 | 40 | 44 | 48 | 97 | 98 | 0 | 0 | 24 | 0.02 | 0.60 | 65.6 | 10.8 | -14.8 | 10.9 | 56.7 |
| 08/29 21:00 | 41 | 44 | 48 | 97 | 98 | 0 | 0 | 24 | 0.05 | 0.58 | 64.6 | 10.9 | -15.8 | 10.9 | 58.4 |
| 08/29 20:00 | 40 | 44 | 49 | 96 | 97 | 0 | 0 | 23 | 0.06 | 0.53 | 64.2 | 10.8 | -17.6 | 10.9 | 58.3 |
| 08/29 19:00 | 40 | 45 | 50 | 94 | 95 | 0 | 0 | 25 | 0.00 | 0.47 | 63.5 | 10.6 | -18.4 | 10.8 | 55.7 |
| 08/29 18:00 | 40 | 44 | 50 | 94 | 95 | 0 | 0 | 27 | 0.00 | 0.47 | 60.5 | 10.7 | -18.1 | 11.2 | 54.8 |
| 08/29 17:00 | 42 | 45 | 50 | 96 | 96 | 0 | 0 | 26 | 0.01 | 0.47 | 61.4 | 10.9 | -17.2 | 11.3 | 46.5 |
| 08/29 16:00 | 40 | 44 | 49 | 96 | 96 | 0 | 0 | 25 | 0.00 | 0.46 | 62.6 | 10.8 | -17.0 | 11.2 | 52.7 |
| 08/29 15:00 | 40 | 44 | 49 | 96 | 95 | 0 | 0 | 35 | 0.00 | 0.46 | 62.7 | 10.4 | -15.4 | 11.1 | 51.1 |
| 08/29 14:00 | 40 | 44 | 49 | 96 | 96 | 0 | 0 | 30 | 0.05 | 0.46 | 64.7 | 10.5 | -17.5 | 11.1 | 49.9 |
| 08/29 13:00 | 40 | 43 | 48 | 96 | 97 | 0 | 0 | 35 | 0.03 | 0.41 | 63.6 | 10.5 | -15.8 | 10.9 | 49.9 |
| 08/29 12:00 | 40 | 42 | 47 | 96 | 96 | 0 | 0 | 40 | 0.05 | 0.38 | 64.1 | 10.5 | -17.8 | 10.8 | 47.7 |
| 08/29 11:00 | 40 | 42 | 46 | 97 | 96 | 0 | 0 | -7999 | 0.00 | 0.33 | 66.6 | 10.5 | -16.6 | 10.9 | 46.4 |
| 08/29 10:00 | 36 | 40 | 45 | 95 | 95 | 0 | 0 | 90 | 0.22 | 0.33 | 63.9 | 10.9 | -23.4 | 10.8 | 50.7 |
| 08/29 09:00 | 38 | 42 | 47 | 95 | 96 | 0 | 0 | 54 | 0.10 | 0.11 | 62.0 | 10.6 | -24.5 | 10.8 | 57.3 |
| 08/29 08:00 | 39 | 43 | 47 | 95 | 93 | 0 | 0 | 33 | 0.00 | 0.01 | 64.0 | 10.2 | -24.5 | 10.8 | 57.0 |
| 08/29 07:00 | 39 | 42 | 47 | 95 | 94 | 0 | 0 | 36 | 0.00 | 0.01 | 63.9 | 10.4 | -21.4 | 10.9 | 57.7 |
| 08/29 06:00 | 39 | 43 | 47 | 95 | 94 | 0 | 0 | 28 | 0.01 | 0.01 | 62.4 | 10.4 | -18.9 | 10.9 | 59.1 |
| 08/29 05:00 | 39 | 43 | 48 | 96 | 96 | 0 | 0 | 24 | 0.00 | 0.00 | 64.0 | 10.2 | -21.3 | 10.9 | 58.3 |
| 08/29 04:00 | 40 | 44 | 49 | 97 | 96 | 0 | 0 | 24 | 0.00 | 0.00 | 62.9 | 10.1 | -19.1 | 11.4 | 57.5 |
| 08/29 03:00 | 42 | 45 | 49 | 93 | 96 | 0 | 0 | 21 | 0.00 | 0.00 | 60.8 | 10.1 | -5.0 | 11.6 | 57.6 |
| 08/29 02:00 | 42 | 46 | 50 | 94 | 94 | 0 | 0 | 20 | 0.00 | 0.00 | 59.8 | 10.2 | -3.3 | 10.9 | 57.8 |
| 08/29 01:00 | 44 | 47 | 51 | 94 | 92 | 0 | 0 | 24 | 0.00 | 0.00 | 59.7 | 10.2 | -7.8 | 11.8 | 56.8 |
| 08/29 00:00 | 44 | 48 | 52 | 92 | 82 | 0 | 0 | 21 | 0.00 | 0.00 | 56.9 | 9.7 | -17.3 | 10.5 | 58.8 |
| 08/28 23:00 | 44 | 48 | 51 | 89 | 82 | 0 | 0 | 21 | 0.00 | 0.00 | 59.8 | 9.7 | -13.6 | 10.7 | 59.0 |
| 08/28 22:00 | 44 | 48 | 50 | 86 | 80 | 0 | 0 | 21 | 0.00 | 0.00 | 55.1 | 9.7 | -14.6 | 10.5 | 59.7 |
| 08/28 21:00 | 45 | 49 | 53 | 79 | 75 | 0 | 0 | 21 | 0.00 | 0.00 | 51.8 | 9.7 | -14.0 | 10.6 | 55.5 |
| 08/28 20:00 | 45 | 50 | 55 | 84 | 73 | 0 | 0 | 21 | 0.00 | 0.00 | 51.7 | 9.6 | -12.4 | 10.8 | 57.0 |
| 08/28 19:00 | 47 | 52 | 57 | 83 | 69 | 0 | 0 | 20 | 0.00 | 0.00 | 48.0 | 9.3 | -10.4 | 10.6 | 55.8 |
| 08/28 18:00 | 50 | 53 | 59 | 75 | 63 | 0 | 0 | 19 | 0.00 | 0.00 | 42.6 | 8.9 | -9.0 | 10.5 | 45.2 |
| 08/28 17:00 | 50 | 56 | 62 | 75 | 55 | 0 | 0 | 18 | 0.00 | 0.00 | 46.1 | 8.9 | -7.3 | 10.3 | 48.6 |
| 08/28 16:00 | 51 | 56 | 62 | 71 | 57 | 0 | 0 | 19 | 0.00 | 0.00 | 49.7 | 8.8 | -10.9 | 10.5 | 52.9 |
| 08/28 15:00 | 50 | 58 | 64 | 71 | 53 | 0 | 0 | 19 | 0.00 | 0.00 | 51.9 | 8.5 | -8.0 | 10.5 | 42.1 |
| 08/28 14:00 | 52 | 57 | 65 | 70 | 50 | 0 | 0 | 18 | 0.00 | 0.00 | 45.6 | 8.4 | -11.2 | 10.7 | 33.5 |
| 08/28 13:00 | 50 | 54 | 61 | 76 | 60 | 0 | 0 | 20 | 0.00 | 0.00 | 47.6 | 8.9 | -12.2 | 10.3 | 39.9 |
| 08/28 12:00 | 49 | 52 | 60 | 80 | 63 | 0 | 0 | 20 | 0.00 | 0.00 | 45.4 | 8.9 | -13.7 | 10.4 | 49.2 |
| 08/28 11:00 | 47 | 52 | 58 | 83 | 71 | 0 | 0 | 20 | 0.00 | 0.00 | 48.6 | 9.2 | -14.6 | 10.7 | 42.7 |
| 08/28 10:00 | 46 | 49 | 54 | 88 | 83 | 0 | 0 | 21 | 0.00 | 0.00 | 57.1 | 9.6 | -15.4 | 10.7 | 47.4 |
| 08/28 09:00 | 45 | 48 | 52 | 92 | 88 | 0 | 0 | 22 | 0.00 | 0.00 | 60.2 | 9.8 | -15.9 | 10.6 | 54.5 |
| 08/28 08:00 | 44 | 47 | 51 | 93 | 93 | 0 | 0 | 21 | 0.00 | 0.00 | 60.7 | 9.6 | -17.9 | 10.7 | 56.1 |
| 08/28 07:00 | 43 | 47 | 51 | 94 | 93 | 0 | 0 | 21 | 0.00 | 0.00 | 62.3 | 9.7 | -19.0 | 10.7 | 58.3 |
| 08/28 06:00 | 43 | 46 | 51 | 94 | 94 | 0 | 0 | 21 | 0.00 | 0.00 | 60.4 | 9.6 | -18.8 | 10.5 | 60.0 |
| 08/28 05:00 | 44 | 47 | 50 | 92 | 93 | 0 | 0 | 21 | 0.00 | 0.00 | 59.4 | 9.9 | -17.3 | 11.0 | 57.8 |
| 08/28 04:00 | 44 | 47 | 50 | 90 | 93 | 0 | 0 | 21 | 0.00 | 0.00 | 60.5 | 10.5 | -18.9 | 10.7 | 58.7 |
| 08/28 03:00 | 44 | 48 | 50 | 92 | 92 | 0 | 0 | 21 | 0.00 | 0.00 | 62.6 | 10.7 | -18.3 | 10.6 | 58.8 |
| 08/28 02:00 | 44 | 48 | 51 | 88 | 89 | 0 | 0 | 21 | 0.00 | 0.00 | 59.0 | 9.7 | -19.9 | 10.9 | 60.3 |
| 08/28 01:00 | 45 | 49 | 53 | 91 | 86 | 0 | 0 | 22 | 0.00 | 0.00 | 56.8 | 9.4 | -15.4 | 10.4 | 59.8 |
| 08/28 00:00 | 45 | 50 | 54 | 94 | 84 | 0 | 0 | 21 | 0.00 | 0.00 | 55.5 | 9.5 | -15.1 | 10.5 | 59.3 |
| 08/27 23:00 | 46 | 51 | 55 | 93 | 82 | 0 | 0 | 21 | 0.00 | 0.00 | 55.4 | 9.4 | -13.4 | 10.3 | 60.2 |
| 08/27 22:00 | 46 | 51 | 56 | 91 | 76 | 0 | 0 | 21 | 0.00 | 0.00 | 51.8 | 9.6 | -15.4 | 10.6 | 59.7 |
| 08/27 21:00 | 47 | 51 | 55 | 85 | 76 | 0 | 0 | 20 | 0.00 | 0.00 | 53.7 | 9.2 | -11.7 | 10.5 | 58.4 |
| 08/27 20:00 | 48 | 52 | 58 | 84 | 70 | 0 | 0 | 19 | 0.00 | 0.00 | 49.7 | 9.1 | -12.3 | 10.5 | 58.2 |
| 08/27 19:00 | 48 | 53 | 59 | 84 | 65 | 0 | 0 | 20 | 0.00 | 0.00 | 43.9 | 9.2 | -11.4 | 10.6 | 57.3 |
| 08/27 18:00 | 49 | 54 | 60 | 81 | 62 | 0 | 0 | 20 | 0.00 | 0.00 | 43.8 | 8.7 | -11.1 | 10.4 | 55.2 |
| 08/27 17:00 | 50 | 54 | 60 | 80 | 62 | 0 | 0 | 19 | 0.00 | 0.00 | 43.6 | 8.9 | -8.9 | 10.5 | 51.7 |
| 08/27 16:00 | 49 | 54 | 60 | 81 | 66 | 0 | 0 | 18 | 0.00 | 0.00 | 46.9 | 9.2 | -9.2 | 10.6 | 55.2 |
| 08/27 15:00 | 50 | 54 | 60 | 77 | 62 | 0 | 0 | 19 | 0.00 | 0.00 | 43.6 | 8.8 | -8.8 | 10.5 | 51.9 |
| 08/27 14:00 | 49 | 53 | 60 | 84 | 65 | 0 | 0 | 19 | 0.00 | 0.00 | 46.3 | 9.3 | -9.5 | 10.7 | 52.9 |
| 08/27 13:00 | 51 | 55 | 61 | 69 | 56 | 0 | 0 | 17 | 0.00 | 0.00 | 43.9 | 8.8 | -9.5 | 10.6 | 49.8 |
| 08/27 12:00 | 53 | 56 | 63 | 61 | 49 | 0 | 0 | 17 | 0.00 | 0.00 | 38.8 | 8.9 | -8.1 | 10.7 | 44.4 |
| 08/27 11:00 | 51 | 54 | 60 | 69 | 64 | 0 | 0 | 18 | 0.00 | 0.00 | 43.5 | 9.0 | -12.4 | 10.5 | 38.4 |
| 08/27 10:00 | 49 | 53 | 56 | 83 | 80 | 0 | 0 | 19 | 0.00 | 0.00 | 55.7 | 9.4 | -8.2 | 10.6 | 49.4 |
| 08/27 09:00 | 48 | 52 | 55 | 84 | 85 | 0 | 0 | 21 | 0.00 | 0.00 | 53.9 | 9.4 | -9.5 | 10.6 | 55.5 |
| 08/27 08:00 | 48 | 52 | 53 | 88 | 88 | 0 | 0 | 21 | 0.00 | 0.00 | 56.3 | 9.5 | -11.9 | 10.6 | 55.1 |
| 08/27 07:00 | 47 | 52 | 52 | 90 | 90 | 0 | 0 | 20 | 0.00 | 0.00 | 61.0 | 9.6 | -10.1 | 10.4 | 57.8 |
| 08/27 06:00 | 48 | 53 | 53 | 88 | 89 | 0 | 0 | 20 | 0.00 | 0.00 | 60.1 | 9.4 | -10.4 | 10.7 | 59.6 |
| 08/27 05:00 | 49 | 53 | 52 | 87 | 91 | 0 | 0 | 19 | 0.00 | 0.00 | 60.2 | 10.0 | -8.3 | 10.6 | 59.4 |
| 08/27 04:00 | 50 | 56 | 52 | 82 | 90 | 0 | 0 | 19 | 0.00 | 0.00 | 62.8 | 9.7 | -6.7 | 10.6 | 60.9 |
| 08/27 03:00 | 51 | 57 | 52 | 79 | 89 | 0 | 0 | 18 | 0.00 | 0.00 | 59.9 | 9.7 | -6.4 | 10.3 | 60.5 |
| 08/27 02:00 | 52 | 57 | 52 | 77 | 88 | 0 | 0 | 18 | 0.00 | 0.00 | 60.1 | 9.7 | -4.3 | 10.6 | 60.6 |
| 08/27 01:00 | 52 | 54 | 52 | 77 | 86 | 0 | 0 | 18 | 0.00 | 0.00 | 56.7 | 9.6 | -8.0 | 10.7 | 61.3 |
| 08/27 00:00 | 52 | 55 | 53 | 78 | 84 | 0 | 0 | 18 | 0.00 | 0.00 | 58.1 | 9.7 | -6.6 | 10.7 | 62.3 |
| 08/26 23:00 | 53 | 56 | 54 | 74 | 80 | 0 | 0 | 18 | 0.00 | 0.00 | 55.1 | 9.3 | -3.5 | 10.5 | 62.4 |
| 08/26 22:00 | 54 | 57 | 55 | 70 | 77 | 0 | 0 | 18 | 0.00 | 0.00 | 51.1 | 9.4 | -2.8 | 10.5 | 62.2 |
| 08/26 21:00 | 54 | 58 | 57 | 68 | 71 | 0 | 0 | 17 | 0.00 | 0.00 | 46.6 | 9.3 | -3.2 | 10.6 | 60.8 |
| 08/26 20:00 | 56 | 60 | 61 | 62 | 63 | 0 | 0 | 17 | 0.00 | 0.00 | 42.4 | 9.9 | 0.5 | 10.6 | 59.9 |
| 08/26 19:00 | 57 | 62 | 66 | 58 | 51 | 0 | 0 | 17 | 0.00 | 0.00 | 41.0 | 8.8 | -0.7 | 10.7 | 53.8 |
| 08/26 18:00 | 59 | 63 | 69 | 47 | 39 | 0 | 0 | 16 | 0.00 | 0.00 | 44.9 | 8.1 | 0.6 | 10.6 | 52.3 |
| 08/26 17:00 | 63 | 67 | 71 | 36 | 33 | 0 | 0 | 15 | 0.00 | 0.00 | 52.9 | 8.1 | 3.9 | 10.6 | 46.7 |
| 08/26 16:00 | 61 | 67 | 74 | 38 | 30 | 0 | 0 | 15 | 0.00 | 0.00 | 60.6 | 7.6 | 2.1 | 10.6 | 42.6 |
| 08/26 15:00 | 64 | 68 | 74 | 37 | 27 | 0 | 0 | 15 | 0.00 | 0.00 | 56.7 | 7.6 | 3.4 | 10.7 | 43.3 |
| 08/26 14:00 | 62 | 68 | 73 | 46 | 42 | 0 | 0 | 16 | 0.00 | 0.00 | 57.7 | 7.8 | 1.8 | 10.7 | 39.4 |
| 08/26 13:00 | 61 | 65 | 70 | 57 | 54 | 0 | 0 | 16 | 0.00 | 0.00 | 51.9 | 8.2 | 1.8 | 10.9 | 40.3 |
| 08/26 12:00 | 64 | 64 | 68 | 59 | 62 | 0 | 0 | 16 | 0.00 | 0.00 | 46.8 | 8.2 | 3.0 | 10.5 | 43.0 |
| 08/26 11:00 | 65 | 61 | 66 | 57 | 66 | 0 | 0 | 16 | 0.00 | 0.00 | 47.4 | 9.1 | 3.8 | 10.7 | 19.4 |
| 08/26 10:00 | 62 | 61 | 64 | 60 | 70 | 0 | 0 | 16 | 0.00 | 0.00 | 46.3 | 9.4 | 4.1 | 10.5 | 11.0 |
| 08/26 09:00 | 62 | 59 | 54 | 60 | 93 | 0 | 0 | 17 | 0.00 | 0.00 | 59.2 | 9.8 | 4.8 | 10.5 | 12.2 |
| 08/26 08:00 | 57 | 58 | 52 | 68 | 94 | 0 | 0 | 17 | 0.00 | 0.00 | 61.2 | 10.2 | 4.9 | 10.4 | 46.2 |
| 08/26 07:00 | 57 | 58 | 51 | 64 | 93 | 0 | 0 | 17 | 0.00 | 0.00 | 59.7 | 10.3 | 3.3 | 10.4 | 58.3 |
| 08/26 06:00 | 58 | 58 | 50 | 58 | 93 | 0 | 0 | 16 | 0.00 | 0.00 | 64.4 | 10.2 | -3.3 | 10.5 | 61.6 |
| 08/26 05:00 | 60 | 60 | 51 | 50 | 93 | 0 | 0 | 16 | 0.00 | 0.00 | 62.8 | 10.2 | -2.3 | 10.3 | 63.3 |
| 08/26 04:00 | 60 | 65 | 51 | 52 | 92 | 0 | 0 | 16 | 0.00 | 0.00 | 59.7 | 10.1 | 3.0 | 10.4 | 61.0 |
| 08/26 03:00 | 61 | 64 | 53 | 50 | 92 | 0 | 0 | 15 | 0.00 | 0.00 | 60.3 | 10.1 | 1.6 | 10.8 | 61.1 |
| 08/26 02:00 | 62 | 63 | 54 | 50 | 89 | 0 | 0 | 15 | 0.00 | 0.00 | 58.2 | 9.9 | 4.6 | 10.6 | 61.4 |
| 08/26 01:00 | 61 | 65 | 56 | 57 | 86 | 0 | 0 | 14 | 0.00 | 0.00 | 55.0 | 9.9 | 4.3 | 10.5 | 62.8 |
| 08/26 00:00 | 60 | 62 | 57 | 50 | 86 | 0 | 0 | 14 | 0.00 | 0.00 | 56.9 | 9.5 | 9.0 | 10.3 | 61.2 |
| 08/25 23:00 | 61 | 64 | 58 | 53 | 80 | 0 | 0 | 16 | 0.00 | 0.00 | 53.8 | 9.3 | 7.6 | 10.4 | 62.8 |
| 08/25 22:00 | 61 | 66 | 61 | 59 | 75 | 0 | 0 | 17 | 0.00 | 0.00 | 51.8 | 9.1 | 10.8 | 10.5 | 62.2 |
| 08/25 21:00 | 62 | 66 | 63 | 56 | 69 | 0 | 0 | 17 | 0.00 | 0.00 | 48.1 | 8.9 | 10.3 | 10.8 | 62.0 |
| 08/25 20:00 | 64 | 67 | 67 | 53 | 62 | 0 | 0 | 16 | 0.00 | 0.00 | 50.3 | 8.3 | 6.5 | 10.6 | 59.3 |
| 08/25 19:00 | 65 | 69 | 70 | 53 | 55 | 0 | 0 | 16 | 0.00 | 0.00 | 55.5 | 8.3 | 6.8 | 10.5 | 54.9 |
| 08/25 18:00 | 67 | 70 | 75 | 51 | 47 | 0 | 0 | 16 | 0.00 | 0.00 | 61.3 | 7.9 | 8.4 | 10.8 | 48.7 |
| 08/25 17:00 | 68 | 72 | 77 | 50 | 43 | 0 | 0 | 17 | 0.00 | 0.00 | 67.3 | 7.2 | 13.4 | 10.5 | 43.5 |
| 08/25 16:00 | 72 | 73 | 79 | 33 | 39 | 0 | 0 | 14 | 0.00 | 0.00 | 71.7 | 7.3 | 13.6 | 10.7 | 39.7 |
| 08/25 15:00 | 74 | 77 | 84 | 30 | 23 | 0 | 0 | 13 | 0.00 | 0.00 | 71.1 | 6.8 | 8.1 | 10.7 | 38.7 |
| 08/25 14:00 | 73 | 77 | 83 | 31 | 24 | 0 | 0 | 12 | 0.00 | 0.00 | 62.0 | 7.0 | 6.3 | 10.8 | 31.6 |
| 08/25 13:00 | 71 | 75 | 81 | 30 | 27 | 0 | 0 | 14 | 0.00 | 0.00 | 52.8 | 8.2 | 4.7 | 10.6 | 37.4 |
| 08/25 12:00 | 70 | 72 | 77 | 32 | 32 | 0 | 0 | 14 | 0.00 | 0.00 | 40.7 | 8.6 | 2.5 | 10.8 | 36.4 |
| 08/25 11:00 | 68 | 70 | 70 | 33 | 44 | 0 | 0 | 14 | 0.00 | 0.00 | 35.5 | 9.2 | 1.4 | 10.6 | 25.4 |
| 08/25 10:00 | 65 | 68 | 63 | 35 | 69 | 0 | 0 | 14 | 0.00 | 0.00 | 43.9 | 9.6 | -0.8 | 10.5 | 26.8 |
| 08/25 09:00 | 65 | 65 | 57 | 36 | 77 | 0 | 0 | 14 | 0.00 | 0.00 | 48.6 | 9.9 | -1.1 | 10.5 | 26.0 |
| 08/25 08:00 | 64 | 67 | 53 | 36 | 78 | 0 | 0 | 15 | 0.00 | 0.00 | 52.7 | 10.1 | 0.7 | 10.3 | 35.7 |
| 08/25 07:00 | 62 | 66 | 53 | 38 | 75 | 0 | 0 | 15 | 0.00 | 0.00 | 54.2 | 9.9 | -0.8 | 10.3 | 54.0 |
| 08/25 06:00 | 61 | 66 | 53 | 39 | 74 | 0 | 0 | 15 | 0.00 | 0.00 | 51.0 | 10.1 | 0.2 | 10.4 | 58.5 |
| 08/25 05:00 | 61 | 66 | 54 | 40 | 71 | 0 | 0 | 16 | 0.00 | 0.00 | 46.7 | 9.7 | -0.4 | 10.8 | 58.5 |
| 08/25 04:00 | 61 | 66 | 55 | 41 | 70 | 0 | 0 | 15 | 0.00 | 0.00 | 47.7 | 10.0 | -0.4 | 10.3 | 57.5 |
| 08/25 03:00 | 61 | 66 | 55 | 41 | 70 | 0 | 0 | 15 | 0.00 | 0.00 | 47.3 | 9.8 | -0.8 | 10.7 | 59.5 |
| 08/25 02:00 | 61 | 66 | 56 | 40 | 68 | 0 | 0 | 15 | 0.00 | 0.00 | 45.4 | 9.6 | 0.0 | 10.4 | 58.3 |
| 08/25 01:00 | 62 | 66 | 57 | 40 | 65 | 0 | 0 | 15 | 0.00 | 0.00 | 44.3 | 9.4 | 1.3 | 10.1 | 58.6 |
| 08/25 00:00 | 62 | 66 | 58 | 40 | 64 | 0 | 0 | 15 | 0.00 | 0.00 | 45.2 | 9.3 | 1.3 | 10.5 | 60.5 |
| 08/24 23:00 | 61 | 65 | 58 | 41 | 64 | 0 | 0 | 15 | 0.00 | 0.00 | 43.3 | 9.6 | 1.6 | 10.7 | 60.0 |
| 08/24 22:00 | 61 | 65 | 60 | 42 | 62 | 0 | 0 | 15 | 0.00 | 0.00 | 43.5 | 9.2 | 2.9 | 10.4 | 60.8 |
| 08/24 21:00 | 62 | 65 | 62 | 43 | 59 | 0 | 0 | 15 | 0.00 | 0.00 | 45.0 | 9.5 | 4.4 | 10.3 | 57.9 |

